AP679 Weather Reports


Display with metric or nautical units.
time (UTC)temp
F
wind
direction
speed
MPH
gust
MPH
rain 1hr
in
rain 24hr
in
rain mn
in
humidity
%
barometer
mb
20260507114004 63 44 1.0 3.0 0.00 0.00 0.00 58 1016.3
20260507113504 63 355 2.0 5.0 0.00 0.00 0.00 58 1016.3
20260507113005 64 355 3.0 5.0 0.00 0.00 0.00 57 1016.4
20260507112503 64 26 3.0 6.0 0.00 0.00 0.00 56 1016.4
20260507112005 65 26 3.0 8.0 0.00 0.00 0.00 56 1016.4
20260507111504 67 123 2.0 3.0 0.00 0.00 0.00 54 1016.4
20260507110504 68 31 2.0 5.0 0.00 0.00 0.00 53 1016.4
20260507110004 69 89 3.0 8.0 0.00 0.00 0.00 52 1016.4
20260507105504 68 40 2.0 6.0 0.00 0.00 0.00 54 1016.4
20260507105004 66 248 1.0 5.0 0.00 0.00 0.00 55 1016.4
20260507104504 66 84 1.0 5.0 0.00 0.00 0.00 53 1016.5
20260507104004 67 71 0.0 3.0 0.00 0.00 0.00 54 1016.6
20260507103504 67 71 2.0 3.0 0.00 0.00 0.00 53 1016.6
20260507103004 66 69 3.0 8.0 0.00 0.00 0.00 54 1016.6
20260507102504 65 62 0.0 3.0 0.00 0.00 0.00 57 1016.6
20260507102006 64 57 1.0 6.0 0.00 0.00 0.00 58 1016.6
20260507100504 65 94 5.0 7.0 0.00 0.00 0.00 56 1016.5
20260507100004 65 48 2.0 5.0 0.00 0.00 0.00 58 1016.5
20260507094503 64 11 2.0 5.0 0.00 0.00 0.00 61 1016.4
20260507094005 63 63 1.0 3.0 0.00 0.00 0.00 62 1016.4
20260507093504 63 22 4.0 10.0 0.00 0.00 0.00 62 1016.5
20260507092504 63 59 2.0 3.0 0.00 0.00 0.00 64 1016.4
20260507092003 62 59 2.0 7.0 0.00 0.00 0.00 65 1016.3
20260507091504 62 38 4.0 7.0 0.00 0.00 0.00 63 1016.3
20260507091004 62 98 2.0 7.0 0.00 0.00 0.00 64 1016.4
20260507090504 62 69 4.0 6.0 0.00 0.00 0.00 64 1016.3
20260507090005 62 93 2.0 6.0 0.00 0.00 0.00 65 1016.3
20260507085503 61 51 1.0 6.0 0.00 0.00 0.00 68 1016.2
20260507085004 61 26 2.0 7.0 0.00 0.00 0.00 67 1016.2
20260507084504 60 32 2.0 5.0 0.00 0.00 0.00 67 1016.3
20260507084004 60 71 2.0 5.0 0.00 0.00 0.00 68 1016.3
20260507083503 59 23 0.0 3.0 0.00 0.00 0.00 70 1016.2
20260507083005 59 23 2.0 5.0 0.00 0.00 0.00 71 1016.2
20260507082004 59 36 2.0 5.0 0.00 0.00 0.00 68 1016.3
20260507081503 60 40 3.0 6.0 0.00 0.00 0.00 69 1016.3
20260507081004 59 42 2.0 5.0 0.00 0.00 0.00 70 1016.3
20260507080504 59 31 0.0 5.0 0.00 0.00 0.00 69 1016.1
20260507080004 58 36 2.0 5.0 0.00 0.00 0.00 70 1016.1
20260507075503 58 37 2.0 6.0 0.00 0.00 0.00 71 1016.2
20260507075004 58 37 2.0 6.0 0.00 0.00 0.00 72 1016.2
20260507074504 58 37 2.0 6.0 0.00 0.00 0.00 72 1016.2
20260507074003 57 52 3.0 6.0 0.00 0.00 0.00 73 1016.1
20260507073504 57 50 2.0 6.0 0.00 0.00 0.00 73 1016.1
20260507073004 57 56 2.0 5.0 0.00 0.00 0.00 75 1016.1
20260507072504 56 33 2.0 3.0 0.00 0.00 0.00 77 1016.0
20260507072004 56 33 2.0 5.0 0.00 0.00 0.00 78 1016.0
20260507071004 56 34 4.0 7.0 0.00 0.00 0.00 80 1015.9
20260507070504 56 40 2.0 3.0 0.00 0.00 0.00 82 1016.0
20260507070008 55 40 2.0 3.0 0.00 0.00 0.00 84 1016.0
20260507065503 55 41 2.0 5.0 0.00 0.00 0.00 86 1015.9
20260507065004 54 42 2.0 3.0 0.00 0.00 0.00 89 1016.0
20260507064504 53 40 2.0 3.0 0.00 0.00 0.00 90 1016.0
20260507064003 52 40 0.0 5.0 0.00 0.00 0.00 91 1015.9
20260507063503 52 40 2.0 3.0 0.00 0.00 0.00 92 1015.9
20260507063004 51 40 2.0 3.0 0.00 0.00 0.00 92 1015.9
20260507062504 51 40 2.0 3.0 0.00 0.00 0.00 92 1015.9
20260507062004 51 40 2.0 5.0 0.00 0.00 0.00 92 1015.8
20260507061504 51 40 1.0 3.0 0.00 0.00 0.00 92 1015.8
20260507061003 51 40 1.0 3.0 0.00 0.00 0.00 92 1015.8
20260507060004 51 40 1.0 3.0 0.00 0.00 0.00 92 1015.6
20260507055504 50 40 2.0 3.0 0.00 0.00 0.00 92 1015.6
20260507055003 50 40 1.0 3.0 0.00 0.00 0.00 92 1015.6
20260507054503 50 40 1.0 3.0 0.00 0.00 0.00 92 1015.5
20260507054003 50 40 1.0 3.0 0.00 0.00 0.00 92 1015.4
20260507053504 50 40 1.0 3.0 0.00 0.00 0.00 92 1015.5
20260507053006 50 41 2.0 5.0 0.00 0.00 0.00 92 1015.4
20260507052504 50 42 1.0 3.0 0.00 0.00 0.00 92 1015.4
20260507051004 50 42 2.0 3.0 0.00 0.00 0.00 92 1015.2
20260507050504 50 43 2.0 3.0 0.00 0.00 0.00 92 1015.0
20260507050004 50 43 1.0 3.0 0.00 0.00 0.00 92 1015.1
20260507044504 50 43 0.0 1.0 0.00 0.00 0.00 91 1014.9
20260507044004 50 43 0.0 2.0 0.00 0.00 0.00 91 1014.8
20260507043004 51 44 0.0 2.0 0.00 0.00 0.00 91 1014.8
20260507042504 51 44 0.0 2.0 0.00 0.00 0.00 91 1014.7
20260507041504 51 44 0.0 3.0 0.00 0.00 0.00 91 1014.5
20260507041004 51 44 1.0 3.0 0.00 0.00 0.00 91 1014.5
20260507040504 51 44 0.0 0.0 0.00 0.00 0.00 90 1014.5
20260507040004 51 44 1.0 3.0 0.00 0.00 0.00 91 1014.5
20260507035504 51 44 0.0 3.0 0.00 0.00 0.00 90 1014.5
20260507035003 51 44 1.0 3.0 0.00 0.00 0.00 90 1014.5
20260507034504 51 44 1.0 3.0 0.00 0.00 0.00 90 1014.4
20260507034004 51 44 1.0 3.0 0.00 0.00 0.00 90 1014.4
20260507033504 51 44 1.0 3.0 0.00 0.00 0.00 89 1014.3
20260507033004 51 44 1.0 3.0 0.00 0.00 0.00 90 1014.3
20260507032504 51 44 2.0 5.0 0.00 0.00 0.00 89 1014.3
20260507032004 51 44 1.0 5.0 0.00 0.00 0.00 89 1014.2
20260507031504 51 44 2.0 3.0 0.00 0.00 0.00 89 1014.2
20260507031004 51 44 1.0 5.0 0.00 0.00 0.00 89 1014.2
20260507030504 51 44 2.0 5.0 0.00 0.00 0.00 88 1014.2
20260507025503 51 55 3.0 7.0 0.00 0.00 0.00 88 1014.1
20260507025004 52 57 2.0 7.0 0.00 0.00 0.00 88 1014.1
20260507024504 52 59 2.0 5.0 0.00 0.00 0.00 88 1014.1
20260507024004 52 60 2.0 5.0 0.00 0.00 0.00 88 1014.1
20260507023003 52 75 1.0 3.0 0.00 0.00 0.00 88 1014.1
20260507022504 52 75 1.0 3.0 0.00 0.00 0.00 88 1014.0
20260507022003 52 75 1.0 3.0 0.00 0.00 0.00 87 1014.0
20260507021503 52 82 0.0 2.0 0.00 0.00 0.00 87 1014.0
20260507021003 52 82 0.0 3.0 0.00 0.00 0.00 87 1014.0
20260507020503 52 82 0.0 3.0 0.00 0.00 0.00 87 1013.9
20260507020004 52 82 0.0 1.0 0.00 0.00 0.00 87 1013.8
20260507015504 52 82 0.0 2.0 0.00 0.00 0.00 87 1013.8
20260507015004 52 82 0.0 3.0 0.00 0.00 0.00 87 1013.7
20260507014504 52 82 0.0 2.0 0.00 0.00 0.00 87 1013.7
20260507013503 52 82 0.0 0.0 0.00 0.00 0.00 86 1013.8
20260507013004 52 82 0.0 0.0 0.00 0.00 0.00 85 1013.7
20260507012004 52 82 0.0 0.0 0.00 0.00 0.00 85 1013.8
20260507011004 52 82 0.0 1.0 0.00 0.00 0.00 85 1013.8
20260507010504 52 82 0.0 1.0 0.00 0.00 0.00 85 1013.8
20260507010004 52 82 0.0 3.0 0.00 0.00 0.00 84 1013.8
20260507005504 52 82 0.0 2.0 0.00 0.00 0.00 84 1013.7
20260507004504 52 82 0.0 0.0 0.00 0.00 0.00 84 1013.7
20260507004004 52 82 0.0 0.0 0.00 0.00 0.00 84 1013.7
20260507003504 52 82 0.0 0.0 0.00 0.00 0.00 84 1013.7
20260507003004 52 82 0.0 0.0 0.00 0.00 0.00 84 1013.7
20260507002504 52 82 0.0 0.0 0.00 0.00 0.00 84 1013.6
20260507002003 52 82 0.0 0.0 0.00 0.00 0.00 84 1013.6
20260507001504 52 82 0.0 0.0 0.00 0.00 0.00 84 1013.5
20260507001004 52 82 0.0 0.0 0.00 0.00 0.00 84 1013.5
20260507000504 52 82 0.0 0.0 0.00 0.00 0.00 84 1013.5
20260507000005 52 82 0.0 0.0 0.00 0.00 0.00 84 1013.6
20260506235504 52 82 0.0 0.0 0.00 0.00 0.00 84 1013.5
20260506235004 52 82 0.0 0.0 0.00 0.00 0.00 83 1013.5
20260506233504 52 82 0.0 0.0 0.00 0.00 0.00 83 1013.4
20260506233004 53 82 0.0 1.0 0.00 0.00 0.00 82 1013.4
20260506232004 53 82 0.0 3.0 0.00 0.00 0.00 82 1013.3
20260506231505 53 82 0.0 1.0 0.00 0.00 0.00 81 1013.3
20260506231003 53 82 0.0 0.0 0.00 0.00 0.00 81 1013.3
20260506230504 53 82 0.0 1.0 0.00 0.00 0.00 81 1013.2
20260506230004 53 82 0.0 3.0 0.00 0.00 0.00 81 1013.2
20260506224504 53 82 0.0 2.0 0.00 0.00 0.00 81 1013.1
20260506224003 53 82 0.0 1.0 0.00 0.00 0.00 81 1013.1
20260506223504 53 82 0.0 3.0 0.00 0.00 0.00 80 1013.1
20260506223004 53 82 1.0 3.0 0.00 0.00 0.00 80 1013.1
20260506222504 53 82 1.0 2.0 0.00 0.00 0.00 80 1013.1
20260506222004 54 82 0.0 1.0 0.00 0.00 0.00 79 1013.0
20260506221504 54 82 0.0 2.0 0.00 0.00 0.00 79 1013.0
20260506221003 54 82 0.0 3.0 0.00 0.00 0.00 78 1013.0
20260506220504 54 82 2.0 3.0 0.00 0.00 0.00 78 1013.1
20260506220004 54 83 0.0 2.0 0.00 0.00 0.00 78 1013.1
20260506215004 54 83 0.0 1.0 0.00 0.00 0.00 77 1013.1
20260506214504 54 83 0.0 2.0 0.00 0.00 0.00 77 1013.0
20260506214004 54 83 0.0 2.0 0.00 0.00 0.00 77 1012.9
20260506213504 54 83 1.0 2.0 0.00 0.00 0.00 77 1012.9
20260506213004 54 83 1.0 2.0 0.00 0.00 0.00 77 1012.8
20260506212504 54 83 0.0 2.0 0.00 0.00 0.00 76 1012.8
20260506212004 54 83 1.0 2.0 0.00 0.00 0.00 76 1012.7
20260506211504 54 83 0.0 1.0 0.00 0.00 0.00 76 1012.6
20260506211004 54 83 1.0 2.0 0.00 0.00 0.00 76 1012.6
20260506210004 54 83 0.0 0.0 0.00 0.00 0.00 76 1012.6
20260506205505 54 83 0.0 1.0 0.00 0.00 0.00 75 1012.6
20260506205004 54 83 0.0 3.0 0.00 0.00 0.00 75 1012.6
20260506204503 54 83 0.0 1.0 0.00 0.00 0.00 75 1012.4
20260506204004 54 83 1.0 6.0 0.00 0.00 0.00 74 1012.4
20260506203504 54 83 2.0 6.0 0.00 0.00 0.00 74 1012.3
20260506202503 54 85 1.0 6.0 0.00 0.00 0.00 74 1012.2
20260506202003 54 88 2.0 6.0 0.00 0.00 0.00 74 1012.3
20260506201503 54 84 4.0 8.0 0.00 0.00 0.00 74 1012.2
20260506200504 55 94 5.0 8.0 0.00 0.00 0.00 73 1012.2
20260506200005 55 61 2.0 7.0 0.00 0.00 0.00 73 1012.2
20260506195503 55 77 2.0 7.0 0.00 0.00 0.00 73 1012.1
20260506195004 55 61 4.0 10.0 0.00 0.00 0.00 73 1012.0
20260506194504 55 75 4.0 8.0 0.00 0.00 0.00 72 1011.9
20260506194004 55 74 3.0 7.0 0.00 0.00 0.00 73 1011.9
20260506193504 55 72 3.0 9.0 0.00 0.00 0.00 72 1011.9
20260506192004 55 92 1.0 8.0 0.00 0.00 0.00 73 1011.8
20260506191506 55 100 2.0 6.0 0.00 0.00 0.00 73 1011.7
20260506191003 55 80 3.0 9.0 0.00 0.00 0.00 73 1011.7
20260506190504 55 63 2.0 9.0 0.00 0.00 0.00 73 1011.7
20260506190005 55 70 3.0 7.0 0.00 0.00 0.00 73 1011.6
20260506185004 55 63 3.0 8.0 0.00 0.00 0.00 72 1011.5
20260506184504 55 48 4.0 10.0 0.00 0.00 0.00 71 1011.4
20260506183504 56 52 5.0 9.0 0.00 0.00 0.00 69 1011.4
20260506183006 56 49 5.0 10.0 0.00 0.00 0.00 69 1011.3
20260506182004 56 44 5.0 10.0 0.00 0.00 0.00 68 1011.1
20260506181504 56 61 5.0 10.0 0.00 0.00 0.00 68 1011.0
20260506181003 57 65 6.0 10.0 0.00 0.00 0.00 67 1011.0
20260506180504 57 52 2.0 7.0 0.00 0.00 0.00 68 1010.9
20260506180005 57 43 3.0 8.0 0.00 0.00 0.00 67 1010.8
20260506175504 57 52 3.0 9.0 0.00 0.00 0.00 67 1010.7
20260506175004 57 68 3.0 7.0 0.00 0.00 0.00 67 1010.7
20260506174504 57 48 3.0 8.0 0.00 0.00 0.00 66 1010.6
20260506173505 58 45 4.0 10.0 0.00 0.00 0.00 65 1010.5
20260506173004 58 60 3.0 8.0 0.00 0.00 0.00 65 1010.5
20260506172504 58 48 4.0 8.0 0.00 0.00 0.00 65 1010.4
20260506172004 58 54 3.0 8.0 0.00 0.00 0.00 65 1010.4
20260506170004 58 38 3.0 7.0 0.00 0.00 0.00 66 1010.3
20260506165504 58 53 3.0 8.0 0.00 0.00 0.00 66 1010.2
20260506165004 58 61 5.0 8.0 0.00 0.00 0.00 67 1010.1
20260506163504 58 29 2.0 8.0 0.00 0.00 0.00 69 1010.0
20260506162503 59 346 4.0 8.0 0.00 0.00 0.00 70 1010.0
20260506162004 59 351 4.0 8.0 0.00 0.00 0.00 69 1010.0
20260506161504 60 29 4.0 8.0 0.00 0.00 0.00 68 1009.9
20260506161004 60 11 3.0 7.0 0.00 0.00 0.00 68 1009.9
20260506160003 61 324 6.0 9.0 0.00 0.00 0.00 66 1009.9
20260506155504 60 16 6.0 9.0 0.00 0.00 0.00 66 1010.0
20260506154504 60 4 5.0 10.0 0.00 0.00 0.00 66 1010.0
20260506153504 59 326 4.0 8.0 0.00 0.00 0.00 69 1010.0
20260506153005 59 349 4.0 9.0 0.00 0.00 0.00 69 1010.0
20260506152504 58 329 3.0 8.0 0.00 0.00 0.00 70 1010.1
20260506140004 58 354 4.0 8.0 0.00 0.00 0.00 80 1009.9
20260506135504 58 321 5.0 10.0 0.00 0.00 0.00 81 1009.9
20260506135004 58 327 6.0 10.0 0.00 0.00 0.00 80 1009.9
20260506132003 58 326 5.0 9.0 0.00 0.00 0.00 73 1009.9
20260506131504 59 344 7.0 14.0 0.00 0.00 0.00 72 1009.8
20260506131004 59 321 6.0 12.0 0.00 0.00 0.00 71 1009.8
20260506130504 59 28 6.0 12.0 0.00 0.00 0.00 71 1009.8
20260506125503 59 33 3.0 10.0 0.00 0.00 0.00 71 1009.7
20260506125004 59 8 5.0 10.0 0.00 0.00 0.00 71 1009.7
20260506124504 59 321 5.0 12.0 0.00 0.00 0.00 72 1009.7
20260506124004 59 22 4.0 13.0 0.00 0.00 0.00 72 1009.7
20260506123504 59 3 4.0 8.0 0.00 0.00 0.00 73 1009.7
20260506123004 59 322 5.0 9.0 0.00 0.00 0.00 73 1009.6
20260506122504 59 323 5.0 12.0 0.00 0.00 0.00 74 1009.6
20260506122004 59 332 4.0 12.0 0.00 0.00 0.00 74 1009.6
20260506121004 59 344 4.0 10.0 0.00 0.00 0.00 75 1009.6
20260506120504 59 14 5.0 8.0 0.00 0.00 0.00 74 1009.6
20260506120004 59 319 6.0 12.0 0.00 0.00 0.00 74 1009.5
20260506115504 59 331 5.0 9.0 0.00 0.00 0.00 76 1009.5